Weather History for KEWR - February, 2013

Change the Weather History Date:

Thursday, February 21, 2013

  Actual Average Record
Temperature  
Mean Temperature 30 °F 36 °F  
Max Temperature 36 °F 44 °F 69 °F (1953)
Min Temperature 24 °F 28 °F 6 °F (1950)
Degree Days  
Heating Degree Days 35 29  
Month to date heating degree days 684 653  
Since 1 July heating degree days 3205 3437  
Cooling Degree Days 0 0  
Month to date cooling degree days 0 0  
Year to date cooling degree days 0 0  
Moisture  
Dew Point 11 °F    
Average Humidity 48    
Maximum Humidity 60    
Minimum Humidity 35    
Precipitation  
Precipitation 0.00 in 0.11 in 1.50 in (1951)
Month to date precipitation 2.00 2.12  
Year to date precipitation 4.49 5.66  
Snow  
Snow 0.00 in 0.30 in 4.10 in (1993)
Month to date snowfall 10.8 7.2  
Since 1 July snowfall 20.7 20.9  
Snow Depth 0.00 in    
Sea Level Pressure  
Sea Level Pressure 30.08 in    
Wind  
Wind Speed 17 mph (NW)    
Max Wind Speed 31 mph    
Max Gust Speed 39 mph    
Visibility 10 miles    
Events      
T = Trace of Precipitation, MM = Missing Value Source: NWS Daily Summary

Daily Weather History Graph

Daily Weather History Graph

Search for Another Location

Airport or City:

Trip Planner

Search our weather history database for the weather conditions in past years. The results will help you decide how hot, cold, wet, or windy it might be!

Date:

Astronomy

Feb. 21, 2013 Rise Set
Actual Time 6:42 AM EST 5:39 PM EST
Civil Twilight 6:14 AM EST 6:06 PM EST
Nautical Twilight 5:42 AM EST 6:38 PM EST
Astronomical Twilight 5:10 AM EST 7:10 PM EST
Moon 1:50 PM EST (2/21) 3:45 AM EST (2/21)
Length of Visible Light 11h 52m
Length of Day
10h 56m
Waxing Gibbous, 83% of the Moon is Illuminated
Feb 21
Waxing Gibbous
Feb 25
Full
Mar 4
Last Quarter
Mar 11
New
Mar 19
First Quarter

Hourly Weather History & Observations

Time (EST) Temp. Windchill Dew Point Humidity Pressure Visibility Wind Dir Wind Speed Gust Speed Precip Events Conditions
12:51 AM 25.0 °F 13.6 °F 9.0 °F 51% 30.01 in 10.0 mi WNW 12.7 mph 21.9 mph N/A   Mostly Cloudy
1:51 AM 24.1 °F 13.7 °F 10.0 °F 55% 30.00 in 10.0 mi West 10.4 mph - N/A   Scattered Clouds
2:51 AM 25.0 °F 12.6 °F 10.0 °F 53% 30.00 in 10.0 mi WNW 15.0 mph 21.9 mph N/A   Mostly Cloudy
3:51 AM 25.0 °F 14.8 °F 10.0 °F 53% 29.99 in 10.0 mi West 10.4 mph - N/A   Mostly Cloudy
4:51 AM 26.1 °F 14.5 °F 10.9 °F 53% 30.01 in 10.0 mi WNW 13.8 mph - N/A   Mostly Cloudy
5:51 AM 26.1 °F 13.1 °F 10.0 °F 51% 30.02 in 10.0 mi NW 17.3 mph 32.2 mph N/A   Overcast
6:51 AM 26.6 °F 13.8 °F 10.4 °F 51% 30.03 in 10.0 mi WNW 17.3 mph 23.0 mph N/A   Overcast
7:51 AM 27.0 °F 15.6 °F 9.0 °F 47% 30.04 in 10.0 mi NW 13.8 mph 20.7 mph N/A   Mostly Cloudy
8:51 AM 28.9 °F 16.5 °F 10.0 °F 45% 30.03 in 10.0 mi WNW 18.4 mph 27.6 mph N/A   Mostly Cloudy
9:51 AM 30.0 °F 17.5 °F 10.0 °F 43% 30.02 in 10.0 mi West 19.6 mph 31.1 mph N/A   Scattered Clouds
10:51 AM 33.1 °F 19.6 °F 10.0 °F 38% 30.03 in 10.0 mi WNW 27.6 mph 39.1 mph N/A   Scattered Clouds
11:51 AM 35.1 °F 22.7 °F 10.9 °F 37% 30.02 in 10.0 mi WNW 25.3 mph 35.7 mph N/A   Scattered Clouds
12:51 PM 35.1 °F 24.1 °F 10.9 °F 37% 30.00 in 10.0 mi WNW 19.6 mph 34.5 mph N/A   Scattered Clouds
1:51 PM 35.1 °F 23.3 °F 12.0 °F 39% 30.02 in 10.0 mi WNW 23.0 mph 33.4 mph N/A   Partly Cloudy
2:51 PM 36.0 °F 26.0 °F 12.9 °F 39% 30.03 in 10.0 mi NW 17.3 mph 27.6 mph N/A   Partly Cloudy
3:51 PM 36.0 °F 25.3 °F 12.9 °F 39% 30.04 in 10.0 mi WNW 19.6 mph 33.4 mph N/A   Partly Cloudy
4:51 PM 34.0 °F 22.7 °F 12.0 °F 40% 30.09 in 10.0 mi NW 19.6 mph 24.2 mph N/A   Partly Cloudy
5:51 PM 30.9 °F 19.8 °F 12.0 °F 46% 30.13 in 10.0 mi NW 16.1 mph 24.2 mph N/A   Partly Cloudy
6:51 PM 28.9 °F 16.9 °F 12.0 °F 49% 30.15 in 10.0 mi NW 17.3 mph 21.9 mph N/A   Partly Cloudy
7:51 PM 28.0 °F 17.0 °F 12.0 °F 51% 30.23 in 10.0 mi NW 13.8 mph 21.9 mph N/A   Clear
8:51 PM 27.0 °F 14.7 °F 12.0 °F 53% 30.27 in 10.0 mi NW 16.1 mph 23.0 mph N/A   Clear
9:51 PM 26.6 °F 15.2 °F 12.2 °F 55% 30.27 in 10.0 mi NNW 13.8 mph - N/A   Clear
10:51 PM 25.0 °F 12.2 °F 12.0 °F 58% 30.28 in 10.0 mi NNW 16.1 mph - N/A   Clear
11:51 PM 26.1 °F 17.6 °F 12.9 °F 58% 30.29 in 10.0 mi North 8.1 mph 18.4 mph N/A   Clear